Location: Crescent
(42.8242°N, 73.7329°W)
Time: 15:30:59
(UTC+00:00)

A-11 Canister half - Pass Details

Date: 24 February 2026
Orbit: 1525 x 1683 km, 47.3° (Epoch: 9 March)

Event Time Altitude Azimuth Distance (km) Brightness Sun altitude
Rises 22:53:40 0° 280° (W) 4,713 13.2 -3.6°
Reaches altitude 10° 22:56:47 10° 283° (WNW) 3,716 12.4 -4.2°
Maximum altitude 23:06:06 69° 7° (N) 1,616 9.1 -5.9°
Drops below altitude 10° 23:15:24 10° 91° (E) 3,699 10.3 -7.6°
Enters shadow 23:15:52 - 91° (E) 3,848 10.4 -7.6°
